Find Thor III

NORAD ID: 25358 Int'l Des: 1998-035 Owner: TNOR Country: N operational
HEOCIRCULAR

Live Position

Loading 3D Globe...

About Thor III

Description loading...

Upcoming Passes

Passes for default location (London). Set your location on the main map for personalized predictions.

Altitude History

Loading altitude history...

Two-Line Element Set

1 25358U 98035A 26107.11572715 -.00000207 00000-0 00000-0 0 9993
2 25358 11.6852 39.5212 0003068 218.3722 339.8274 0.98831441101884
Epoch: Apr 17, 2026 • Age: 10 hours

Current Status

Altitude 36204.3 km
Velocity 3.06 km/s
Sub-Earth Point -1.22°S, 11.32°W
Launch Date Jun 10, 1998
Age 27.8 years
Type other

Technical Details

Classification Payload
Mass 821.00 kg
Dry Mass 650.00 kg
Total Mass 1451.00 kg
Length 7.80 m
Diameter 2.20 m
Span 7.80 m
Shape Cyl
Manufacturer HSES
Bus Type HS-376HP
Phase Status In Orbit
Owner/State TNOR/N

Most Searched